Theta_e
290 292 292 292 293 293 294 294 294 289 290 289 289 292 292 291 289 290 289 287 288 288 289 290 292 292 293 293 293 294 294 295 298 299 299 303 311 316
290 290 290 291 291 292 293 293 294 293 289 292 289 291 290 289 288 289 288 286 287 287 287 289 290 291 290 291 291 291 292 292 294 296 297 298 302 306
288 289 288 289 289 290 291 292 292 293 290 287 290 288 288 288 288 289 288 287 288 286 286 287 288 290 289 288 288 289 289 290 290 292 293 295 297 299
286 287 286 286 287 289 290 289 290 292 291 287 286 289 287 286 287 286 286 285 286 284 285 285 286 288 288 287 287 287 287 288 288 288 290 291 292 294
285 286 286 286 286 287 288 288 288 288 290 288 286 288 289 287 286 285 285 286 284 283 283 284 284 286 287 286 286 285 286 286 286 286 286 287 288 290
284 285 285 286 285 286 286 285 286 287 286 286 285 285 286 284 285 284 286 286 284 283 283 282 283 284 286 285 285 284 284 284 285 285 285 284 285 286
283 283 284 283 282 284 285 285 285 285 285 285 283 283 283 283 282 283 284 285 283 283 283 282 283 284 284 285 285 284 283 282 283 284 284 283 283 283
282 283 284 283 282 281 280 280 283 283 282 283 281 279 277 279 282 283 284 284 283 283 283 281 283 281 282 283 284 284 283 282 281 281 282 282 282 282
284 284 282 282 282 282 280 280 279 279 280 282 279 279 279 278 279 282 282 283 282 281 282 281 282 280 281 280 282 283 283 282 281 280 279 280 281 281
284 283 283 282 283 281 280 279 279 280 280 280 280 280 280 280 281 283 283 282 281 281 280 280 281 279 280 281 280 281 281 281 281 281 279 278 278 279
282 282 281 281 281 281 279 277 278 278 280 279 279 278 278 277 278 282 282 282 281 280 279 281 280 279 280 279 280 278 278 278 279 280 280 279 278 278
280 280 279 280 281 279 279 278 277 277 278 277 278 277 276 277 276 280 282 280 279 279 278 280 279 278 279 279 279 279 280 277 277 277 278 279 279 280
279 280 281 279 281 279 279 280 279 276 274 277 278 279 278 278 278 278 278 280 279 277 277 279 278 279 279 278 278 277 277 277 278 278 277 277 278 278
279 280 281 280 281 280 279 278 276 276 278 278 278 278 278 278 278 278 277 277 277 277 276 277 278 277 277 277 274 276 277 277 277 277 277 277 276 276
279 279 280 281 281 280 278 279 275 278 278 278 277 278 279 279 277 278 278 278 277 277 277 276 277 276 276 275 274 274 274 276 277 276 277 277 276 277
278 279 280 281 280 280 280 279 281 280 279 279 278 278 278 278 278 279 278 277 277 276 276 276 276 276 275 275 275 274 275 273 276 276 276 276 277 277
278 277 277 278 277 278 278 278 279 278 278 278 277 277 277 277 277 278 278 277 277 276 275 276 277 276 276 274 275 275 274 275 275 274 274 274 276 276
276 276 277 277 277 277 277 277 278 276 278 277 277 277 277 276 276 276 277 277 276 275 275 276 276 276 276 275 274 275 275 274 274 274 274 273 273 275
276 277 277 277 277 276 276 276 276 277 276 276 277 276 276 276 275 275 275 275 274 274 274 275 274 274 272 271 274 274 273 274 274 273 273 273 272 273
277 277 277 277 276 276 276 275 275 275 275 276 276 276 276 276 275 274 274 274 274 273 272 273 273 273 272 271 271 274 272 273 273 272 272 273 273 272
276 276 277 276 276 276 277 277 276 276 276 275 275 274 274 275 274 274 274 270 271 272 271 271 273 269 274 273 271 272 273 270 271 271 271 270 270 270
277 277 277 277 277 276 277 277 276 275 275 275 275 274 274 274 273 273 273 273 272 272 272 272 272 272 271 270 269 269 270 272 270 269 268 268 268 266
277 277 277 277 277 277 277 277 277 277 276 275 274 273 272 272 273 273 272 272 272 271 270 270 270 270 269 269 267 269 267 267 269 268 269 267 267 268
Wind_Speed
9 10 6 5 4 5 5 3 4 6 3 3 3 3 3 4 8 7 9 14 17 18 18 22 24 25 27 29 30 31 32 34 35 37 41 45 42 38
7 8 7 4 5 5 3 3 2 3 5 4 3 3 5 5 7 6 8 9 16 18 18 22 24 25 27 28 30 30 31 33 35 37 37 41 41 42
9 9 7 7 5 5 4 3 3 2 6 5 4 3 5 5 5 6 6 7 7 17 18 19 22 24 25 27 29 30 31 32 34 35 36 36 38 40
8 8 8 6 7 5 4 5 4 2 4 7 4 4 4 5 1 5 5 5 7 13 15 18 20 24 24 26 27 28 29 30 31 33 34 34 35 35
8 8 8 8 7 5 5 5 4 4 3 5 5 2 2 3 3 2 3 4 6 9 11 15 18 22 24 25 27 28 28 29 30 30 31 32 33 34
7 6 7 7 7 6 5 5 5 5 5 5 4 3 0 4 2 3 2 2 5 5 9 11 13 17 22 23 26 27 28 28 28 29 29 30 30 31
7 6 6 6 7 6 4 5 6 5 5 5 5 3 3 3 3 3 2 1 3 5 5 8 8 8 12 18 19 25 26 26 27 28 29 29 30 32
10 9 9 10 9 9 8 4 4 6 7 5 4 4 3 2 1 2 2 2 0 5 4 7 7 8 9 11 21 22 24 26 26 26 27 28 30 30
11 11 10 8 12 12 14 14 14 12 9 7 8 4 4 3 2 4 2 1 2 4 4 4 5 7 7 9 18 20 21 22 23 25 25 25 27 27
9 10 10 11 10 12 11 11 9 9 8 7 8 6 4 1 5 1 0 3 3 4 5 3 4 5 6 6 16 17 20 22 22 20 22 21 21 25
9 10 11 11 15 15 11 11 10 9 9 12 14 11 10 10 4 3 2 3 2 2 5 2 3 2 3 6 7 12 17 18 20 21 21 21 18 18
7 8 13 11 16 15 10 10 10 10 10 8 7 7 6 9 11 6 1 3 2 3 4 2 3 3 2 3 6 7 7 14 15 18 20 20 19 9
8 8 8 14 15 13 10 7 7 10 8 8 6 4 4 4 5 5 6 4 4 5 4 3 3 1 1 2 3 5 7 8 8 9 14 18 20 18
10 8 8 17 15 14 10 10 14 9 7 7 5 4 4 4 4 4 5 5 5 5 3 3 2 4 2 1 3 4 5 7 7 7 7 10 13 14
8 12 15 17 15 12 11 14 10 6 7 7 5 4 3 3 4 4 5 6 6 5 5 5 4 3 4 3 3 5 4 5 6 7 7 7 8 7
11 10 8 8 9 8 9 8 7 6 6 6 5 4 4 5 4 4 4 3 2 4 5 5 4 4 3 4 3 4 5 5 5 6 5 5 6 7
11 9 7 8 8 8 7 6 6 6 5 5 5 5 5 4 3 3 3 4 2 2 3 2 3 3 3 2 2 3 4 4 5 6 6 5 5 6
9 9 9 9 9 9 8 7 6 6 5 5 5 5 5 5 4 4 3 3 3 3 2 1 0 2 2 4 4 3 3 4 5 6 6 6 5 5
7 9 9 8 8 8 7 7 7 6 6 5 5 5 4 4 5 4 3 3 3 4 3 2 1 1 2 3 3 5 4 4 5 5 6 6 7 6
8 8 8 8 8 8 7 7 6 6 6 5 5 5 5 5 5 4 4 3 4 4 4 3 2 1 3 3 3 2 6 4 5 6 6 6 6 6
7 7 7 8 8 7 8 7 7 7 6 6 5 5 4 5 5 4 3 2 3 4 5 4 2 1 2 1 4 4 3 5 6 6 7 8 6 6
8 8 7 7 7 8 8 7 7 7 7 6 6 5 5 5 5 5 5 4 5 4 3 2 3 2 4 4 5 4 4 2 3 3 4 5 6 6
7 7 7 7 6 7 7 7 7 7 8 7 6 5 5 5 4 5 5 4 4 4 4 4 3 2 3 4 4 4 4 5 4 5 4 1 7 11
Wind_Direction
120 114 128 115 117 115 119 162 166 161 141 169 144 77 49 50 24 33 30 29 23 22 19 16 18 22 22 20 18 14 15 15 13 19 15 13 12 29
115 117 106 127 122 102 120 127 110 144 131 148 109 92 37 76 44 46 47 38 27 26 25 22 19 22 28 25 21 20 19 19 21 20 23 20 18 30
113 128 146 152 136 132 147 132 105 96 126 120 122 89 71 56 73 52 48 43 41 30 28 22 20 25 32 28 23 22 23 24 24 25 24 27 25 30
134 156 155 152 140 148 154 135 133 112 127 125 118 117 84 58 111 49 45 42 40 37 33 31 26 23 30 28 24 23 26 28 28 28 28 27 30 34
160 167 161 157 149 151 152 151 150 144 131 128 116 101 100 45 73 115 40 46 47 42 41 40 38 25 29 29 27 26 26 29 30 32 32 29 33 32
150 163 162 156 153 153 153 156 165 153 118 115 103 119 177 72 15 357 133 59 29 28 56 37 39 39 29 35 30 31 29 28 30 33 35 35 33 34
140 149 145 144 144 152 165 170 173 153 135 125 127 157 108 77 25 350 322 268 102 13 38 36 36 34 31 27 36 31 32 33 28 31 36 39 37 37
145 141 139 133 130 137 127 147 162 150 127 135 129 105 97 115 179 299 339 311 223 59 338 46 25 40 33 23 24 42 38 36 33 31 28 37 40 42
153 145 137 138 134 130 123 110 92 88 89 125 126 117 128 141 230 212 126 39 43 24 292 60 33 48 41 30 21 30 42 46 43 36 34 32 36 42
156 151 144 154 150 147 139 121 113 99 92 90 93 89 65 68 232 273 246 116 135 76 337 24 15 56 43 41 32 28 31 31 35 45 41 34 36 41
162 155 157 160 161 157 143 137 129 116 115 106 92 81 69 56 28 215 186 221 142 62 25 335 30 347 53 42 40 38 39 36 30 27 28 37 27 30
168 165 168 170 166 166 154 157 154 149 144 130 113 89 72 59 49 46 80 111 117 151 45 301 8 337 183 68 39 26 24 25 31 28 26 25 29 31
174 177 175 182 176 175 170 179 169 150 134 124 126 122 104 78 64 55 46 47 79 75 21 288 13 29 0 342 60 34 19 13 15 26 33 37 33 33
173 171 170 179 169 175 168 153 142 142 134 134 140 146 157 135 110 84 81 78 62 65 41 339 36 353 351 24 13 6 33 30 20 23 21 22 30 31
162 158 161 165 167 166 174 166 162 158 144 150 153 159 162 139 141 137 113 106 90 68 57 41 55 59 43 42 41 29 333 26 18 16 21 18 20 17
151 151 169 151 160 163 172 172 186 176 165 156 161 156 162 174 178 179 165 143 113 106 78 54 48 36 66 54 31 42 28 25 7 17 358 20 18 20
141 136 148 154 162 173 188 189 173 167 169 156 165 178 185 178 170 179 190 180 214 189 139 119 70 58 54 353 21 22 7 10 11 5 354 360 22 12
146 161 175 178 183 186 190 177 173 175 169 170 182 189 191 198 184 173 185 225 204 199 186 130 254 234 218 159 340 341 355 350 359 358 350 343 351 11
163 181 185 182 190 191 185 177 175 178 162 179 189 189 198 194 196 189 186 198 195 199 190 168 172 306 307 318 98 26 334 354 336 342 346 346 331 344
189 189 192 189 193 191 183 180 176 167 178 179 187 191 195 195 191 199 200 213 211 196 196 191 208 274 310 332 319 48 13 330 332 332 335 328 319 304
190 191 194 191 192 192 189 185 179 180 178 178 182 196 197 200 188 197 191 196 222 207 212 209 141 335 300 226 245 241 165 44 4 339 333 318 326 318
194 195 190 188 190 189 184 183 185 182 179 187 183 184 185 196 198 189 200 195 207 219 223 166 182 239 256 273 292 277 263 339 297 343 349 339 336 317
188 191 186 184 185 185 183 183 191 193 195 188 179 173 184 184 198 196 194 204 207 203 204 199 211 247 266 277 301 294 290 281 320 315 307 41 326 313